Wind_Speed
15 13 12 10 9 7 6 5 4 4 3 3 3 3 3 3 3 3 4 4 4 4 5 4 5 5 5 5 5 5 5 5 5 5 6 7 7 8 8 8 8 9 10
16 15 13 12 10 9 8 7 5 4 4 3 3 2 2 2 2 2 3 3 3 3 4 4 4 5 5 5 5 5 6 6 6 7 8 8 9 9 9 9 10 11 12
18 17 15 13 12 11 10 8 7 6 4 4 3 2 1 1 1 1 1 2 2 3 3 4 4 5 5 6 6 6 7 7 8 9 9 9 10 9 10 11 12 13 14
19 18 16 15 14 12 11 10 9 7 6 5 4 3 3 2 2 2 2 2 3 3 4 4 5 6 6 7 7 7 8 9 10 10 11 11 11 12 12 14 15 16 16
20 19 18 16 15 14 13 12 10 9 7 6 6 5 5 4 4 4 4 4 5 5 5 5 6 7 7 8 9 9 10 10 11 12 13 13 14 14 15 16 17 18 19
20 20 19 18 16 16 15 13 12 11 9 8 8 7 6 6 6 6 6 6 6 7 7 7 8 9 9 10 11 11 12 13 14 15 15 16 17 17 18 19 20 21 22
21 21 20 19 17 16 16 14 13 12 11 10 10 9 9 9 8 8 8 8 8 9 9 9 10 11 11 12 13 13 14 15 16 17 18 18 19 20 20 21 22 23 24
21 21 21 20 19 18 17 16 14 13 13 12 11 11 10 10 10 9 10 10 10 11 11 12 13 13 14 14 15 15 16 17 18 18 19 20 21 22 23 24 25 26 27
22 21 21 20 19 18 17 16 16 15 14 13 13 12 12 12 12 12 12 12 12 12 13 14 15 15 16 17 17 18 19 19 20 21 22 22 24 25 26 27 28 29 29
22 22 22 21 21 20 18 17 16 15 15 15 14 14 14 14 14 14 14 14 14 15 15 16 17 17 18 19 20 21 21 22 23 24 24 25 26 28 29 30 31 31 33
22 22 22 22 21 21 20 19 18 17 16 16 16 16 15 15 16 16 16 16 16 17 18 18 19 20 20 21 22 23 24 25 25 26 27 28 29 31 32 33 34 34 35
22 22 21 22 21 21 20 20 20 19 18 18 18 18 18 17 17 17 18 18 19 19 20 21 21 22 23 23 24 25 26 27 28 29 30 31 32 33 34 35 36 37 38
21 22 21 21 21 21 20 20 20 20 20 19 19 19 19 19 19 20 20 20 21 21 22 23 23 24 24 25 26 27 29 30 31 31 32 33 34 35 36 36 37 39 40
21 21 21 21 21 22 22 22 22 22 21 21 21 21 21 21 21 21 22 23 23 24 24 25 25 26 26 27 28 30 31 32 33 33 34 35 36 37 37 39 40 41 42
21 21 22 22 22 23 23 23 23 23 23 23 23 23 23 23 23 24 24 25 26 26 27 27 27 28 29 30 30 32 33 34 35 35 36 37 39 39 40 41 43 44 45
21 22 23 23 24 24 24 24 25 24 24 24 24 24 24 25 25 26 27 27 28 28 29 29 29 30 31 32 33 34 35 36 36 37 38 39 40 41 42 43 45 46 46
22 23 23 24 24 24 24 24 24 24 25 25 25 25 26 26 26 27 28 28 29 30 31 31 32 33 34 34 35 36 37 37 38 39 40 41 42 43 45 46 46 47 48
23 23 23 24 24 25 25 24 24 25 25 26 27 27 27 27 28 29 29 30 31 32 33 34 34 35 35 36 37 38 39 39 40 41 42 43 44 45 46 47 48 48 49
22 23 23 23 24 24 25 25 25 26 27 27 28 29 29 30 30 31 32 32 33 34 35 36 36 37 38 38 39 40 41 42 43 44 45 46 47 47 48 48 49 50 51
22 23 24 24 25 25 26 26 27 28 28 29 29 30 31 31 32 32 33 34 35 35 36 37 38 39 40 41 41 42 43 44 45 46 47 48 48 49 49 50 51 52 53
23 24 24 25 25 26 26 27 28 29 29 30 31 31 32 33 33 34 35 36 36 37 38 39 40 40 41 42 43 44 45 46 47 48 48 49 49 50 50 51 52 53 55
24 25 25 26 27 27 28 28 28 29 30 31 32 32 33 34 34 35 36 37 38 39 40 41 42 43 44 44 45 46 47 48 49 49 50 50 51 51 51 52 54 55 56
26 26 26 27 28 29 29 30 30 31 31 32 33 33 34 35 36 37 38 39 40 41 42 43 44 45 46 47 48 49 49 50 50 51 52 52 52 53 54 55 56 57 58
27 28 28 29 29 29 30 30 31 32 33 34 35 35 36 36 38 39 40 41 42 43 44 45 46 47 48 49 49 50 51 51 52 53 53 54 54 55 56 57 58 59 59
28 29 29 29 30 30 31 31 32 33 34 35 36 37 38 39 40 41 42 43 44 45 45 46 47 49 49 50 50 51 52 53 54 54 55 55 56 56 57 58 59 59 60
30 30 30 30 31 32 32 33 34 34 35 36 38 39 40 41 42 43 44 44 45 46 47 48 49 50 50 51 51 52 53 53 54 55 56 56 57 57 58 59 60 61 60
Wind_Direction
208 209 209 208 207 202 198 193 180 167 154 140 125 116 103 92 86 81 79 75 65 59 56 51 43 40 32 28 22 19 10 0 352 345 338 334 328 324 322 318 316 314 308
212 212 213 212 211 208 207 203 197 189 177 166 157 141 124 101 85 75 63 61 56 46 36 31 28 22 15 10 7 4 360 357 350 342 336 332 328 322 320 316 313 309 310
216 215 216 217 216 215 213 212 208 206 201 194 188 193 196 191 176 119 51 40 26 15 13 13 8 2 358 356 355 350 347 346 342 337 332 328 324 321 317 315 314 310 306
218 218 219 219 220 218 218 217 217 216 218 219 220 227 235 240 243 248 278 310 320 335 340 343 342 340 338 338 337 334 333 332 330 330 325 323 322 320 316 315 314 311 307
218 219 221 221 222 221 220 222 223 222 224 228 232 239 244 250 253 258 268 287 299 312 317 318 321 322 322 322 322 320 320 321 321 321 318 316 316 314 311 310 310 309 307
221 221 221 222 224 223 222 223 227 229 229 232 239 245 250 255 256 263 270 282 292 301 301 304 309 313 315 315 317 315 315 315 315 315 312 312 311 310 308 307 307 307 306
221 220 221 222 225 224 224 227 230 232 235 239 243 248 252 256 260 264 272 280 288 295 298 300 303 306 307 308 310 311 311 310 310 310 310 309 308 308 308 307 306 306 305
221 222 222 225 226 224 225 229 232 235 238 240 244 249 252 255 259 265 272 278 284 290 295 298 301 302 304 305 306 308 307 307 308 308 308 307 306 307 308 308 306 306 305
223 223 223 225 226 226 228 230 233 236 239 243 247 251 255 259 263 267 272 277 282 286 291 295 298 300 302 303 304 305 304 304 305 306 306 305 305 306 306 307 306 305 304
224 226 226 227 228 229 231 234 237 240 243 247 251 254 257 261 265 269 273 278 282 286 291 294 296 298 300 301 302 303 302 302 303 304 303 303 304 305 306 307 307 305 304
226 227 228 227 229 231 233 235 239 243 247 251 254 257 260 264 267 270 274 278 283 287 290 293 295 297 299 301 302 301 301 301 302 302 302 303 304 304 305 306 307 305 305
228 230 232 229 231 235 236 237 240 244 248 252 255 258 262 265 268 271 274 278 283 287 289 291 294 296 298 300 301 301 301 302 302 301 301 302 304 304 305 305 306 307 306
232 234 234 234 234 236 237 240 242 245 249 253 256 259 262 265 269 272 275 279 283 286 288 291 294 296 298 299 300 301 301 302 302 301 301 302 303 304 304 304 305 306 306
232 233 234 235 237 238 239 241 244 247 251 255 258 260 262 265 269 273 277 280 283 285 287 290 293 295 297 298 299 300 301 302 302 302 302 302 303 304 304 304 305 305 305
235 236 236 238 240 242 243 244 246 249 253 256 259 262 265 267 270 274 277 280 283 284 286 289 291 294 295 297 298 299 301 301 302 302 302 302 303 303 304 304 305 305 306
236 238 239 240 242 244 246 248 250 252 256 258 260 263 265 268 271 274 278 280 282 284 286 288 290 292 293 295 297 298 300 300 301 301 302 302 302 303 304 304 305 305 306
239 240 241 242 244 245 248 250 252 254 255 258 260 263 266 270 273 276 278 280 281 283 286 288 289 290 292 294 296 298 299 300 301 302 302 303 303 303 304 304 305 305 305
242 244 245 245 246 248 250 251 253 256 258 260 263 265 267 270 273 276 278 280 282 284 286 288 289 290 291 293 296 298 299 300 301 301 302 303 303 304 304 304 304 305 305
245 247 248 249 250 251 252 254 256 258 260 262 264 266 269 272 275 277 279 281 283 285 287 288 289 290 291 293 295 297 298 299 300 301 302 303 303 304 304 304 304 304 305
249 250 251 252 254 255 255 257 259 260 263 265 266 268 271 274 277 278 280 282 284 285 287 289 290 291 292 293 295 296 297 298 299 300 301 302 302 303 304 304 304 305 305
251 254 255 256 257 258 259 261 262 263 265 267 268 270 273 275 277 279 281 283 285 286 288 289 290 291 292 293 294 296 297 299 299 300 301 301 301 302 302 303 304 304 305
254 255 256 258 259 260 261 263 265 267 268 269 271 272 274 276 278 281 282 284 286 287 288 289 291 292 293 294 295 296 297 298 299 300 300 301 301 301 302 303 304 305 306
255 257 259 260 262 262 264 266 267 269 271 272 274 275 276 278 280 282 284 286 287 288 289 290 291 292 293 294 295 296 297 297 298 299 300 300 301 301 302 303 304 305 306
257 259 261 261 263 264 265 267 269 271 272 275 276 277 278 280 282 283 285 287 288 289 290 291 292 293 294 294 295 296 297 297 298 299 300 300 301 302 302 303 304 305 306
259 261 262 263 263 264 266 268 271 272 274 276 277 278 280 282 283 285 286 288 289 289 290 291 292 293 293 294 294 295 296 297 298 299 300 300 301 302 302 303 304 305 305
262 263 264 265 266 267 268 271 272 274 276 278 279 280 282 283 284 286 287 288 289 290 291 292 293 294 294 294 294 295 296 297 297 298 299 300 300 301 302 303 304 304 304
Height
5886 5888 5890 5891 5892 5892 5893 5893 5893 5893 5893 5893 5893 5893 5893 5892 5892 5892 5891 5891 5890 5890 5889 5888 5888 5887 5886 5885 5884 5883 5882 5881 5880 5879 5877 5876 5875 5873 5872 5870 5869 5867 5866
5884 5886 5888 5889 5890 5891 5892 5893 5893 5894 5894 5894 5894 5894 5893 5893 5893 5892 5892 5891 5891 5890 5890 5889 5888 5888 5887 5886 5885 5883 5882 5881 5880 5878 5877 5875 5874 5872 5870 5869 5867 5865 5864
5882 5884 5886 5887 5889 5890 5891 5892 5893 5893 5894 5894 5894 5894 5894 5893 5893 5893 5892 5892 5892 5891 5890 5889 5889 5888 5887 5886 5884 5883 5882 5880 5879 5877 5876 5874 5872 5871 5869 5867 5865 5863 5861
5879 5881 5884 5886 5887 5889 5890 5891 5892 5892 5893 5893 5893 5893 5893 5893 5893 5893 5892 5892 5892 5891 5890 5889 5888 5887 5886 5885 5884 5883 5881 5880 5878 5876 5874 5873 5871 5869 5867 5865 5863 5860 5858
5876 5878 5881 5883 5885 5886 5888 5889 5890 5891 5892 5892 5892 5892 5892 5892 5892 5892 5892 5891 5891 5890 5889 5889 5888 5887 5885 5884 5883 5881 5880 5878 5877 5875 5873 5870 5868 5866 5864 5862 5859 5857 5854
5872 5875 5878 5880 5882 5884 5885 5887 5888 5889 5890 5890 5891 5891 5891 5891 5891 5891 5891 5890 5890 5889 5888 5887 5886 5885 5884 5883 5881 5879 5878 5876 5874 5872 5870 5868 5865 5863 5861 5858 5855 5853 5850
5869 5872 5875 5877 5879 5881 5883 5885 5886 5887 5888 5888 5889 5889 5889 5889 5889 5889 5889 5889 5888 5887 5886 5885 5884 5883 5882 5880 5879 5877 5875 5873 5871 5869 5867 5864 5862 5859 5857 5854 5851 5848 5845
5865 5868 5871 5874 5876 5878 5880 5882 5883 5884 5885 5886 5886 5886 5887 5887 5887 5887 5887 5886 5886 5885 5884 5883 5882 5881 5879 5877 5876 5874 5872 5869 5867 5865 5862 5860 5857 5854 5852 5849 5845 5842 5839
5862 5864 5867 5870 5872 5874 5876 5878 5880 5881 5882 5883 5883 5884 5884 5884 5884 5884 5884 5883 5883 5882 5881 5880 5879 5877 5876 5874 5872 5870 5868 5865 5863 5860 5857 5854 5852 5849 5846 5843 5839 5836 5832
5857 5860 5863 5866 5868 5870 5872 5874 5876 5877 5878 5879 5880 5880 5881 5881 5881 5881 5880 5880 5879 5878 5877 5876 5874 5873 5871 5869 5867 5865 5863 5860 5858 5855 5852 5849 5846 5842 5839 5835 5832 5828 5824
5853 5856 5859 5861 5864 5866 5868 5870 5872 5873 5874 5875 5876 5876 5877 5877 5877 5877 5876 5876 5875 5874 5873 5871 5870 5868 5866 5864 5862 5859 5857 5854 5851 5848 5845 5842 5839 5835 5831 5827 5823 5819 5815
5849 5852 5854 5857 5859 5861 5863 5865 5867 5869 5870 5871 5871 5872 5872 5872 5872 5872 5871 5871 5870 5869 5867 5866 5864 5862 5860 5858 5856 5853 5850 5847 5844 5841 5838 5835 5831 5827 5823 5819 5815 5810 5806
5845 5847 5850 5852 5854 5857 5859 5861 5862 5863 5865 5865 5866 5867 5867 5867 5867 5866 5866 5865 5864 5863 5862 5860 5858 5856 5854 5852 5849 5846 5843 5840 5837 5834 5830 5827 5823 5819 5815 5810 5806 5801 5796
5840 5843 5845 5847 5849 5851 5853 5855 5857 5858 5859 5860 5860 5861 5861 5861 5861 5860 5860 5859 5858 5856 5855 5853 5851 5849 5847 5844 5841 5838 5835 5832 5829 5825 5822 5818 5813 5809 5805 5801 5796 5791 5786
5835 5838 5840 5842 5844 5846 5847 5849 5850 5852 5853 5854 5854 5855 5855 5855 5855 5854 5853 5852 5851 5850 5848 5846 5844 5842 5839 5836 5834 5830 5827 5824 5820 5816 5812 5808 5804 5800 5795 5790 5785 5780 5775
5830 5832 5834 5836 5838 5840 5841 5843 5844 5845 5846 5847 5848 5848 5848 5848 5848 5847 5846 5845 5844 5842 5840 5838 5836 5834 5831 5828 5825 5822 5818 5815 5811 5807 5803 5799 5794 5789 5785 5779 5774 5769 5763
5825 5827 5828 5830 5832 5833 5835 5836 5837 5839 5839 5840 5840 5841 5841 5840 5840 5839 5838 5837 5835 5834 5832 5830 5828 5825 5822 5819 5816 5812 5809 5805 5801 5797 5792 5788 5783 5778 5773 5768 5762 5757 5751
5819 5821 5822 5824 5826 5827 5828 5829 5830 5831 5832 5832 5833 5833 5833 5832 5832 5831 5830 5828 5827 5825 5823 5821 5818 5815 5813 5809 5806 5802 5798 5794 5790 5786 5781 5777 5772 5767 5761 5756 5750 5744 5738
5813 5815 5816 5818 5819 5820 5821 5822 5823 5824 5824 5824 5825 5825 5824 5824 5823 5822 5821 5819 5818 5815 5813 5811 5808 5805 5802 5799 5795 5791 5788 5783 5779 5775 5770 5765 5759 5754 5748 5743 5737 5731 5725
5807 5808 5810 5811 5812 5813 5813 5814 5815 5816 5816 5816 5816 5816 5815 5815 5814 5813 5811 5809 5808 5805 5803 5800 5798 5795 5791 5788 5784 5780 5776 5772 5767 5762 5758 5752 5747 5741 5735 5730 5724 5717 5711
5800 5801 5802 5803 5804 5805 5806 5806 5807 5807 5807 5807 5807 5806 5806 5805 5804 5802 5801 5799 5797 5794 5792 5789 5786 5783 5780 5776 5772 5768 5764 5759 5755 5749 5744 5739 5733 5728 5722 5716 5710 5703 5697
5793 5794 5795 5796 5796 5797 5797 5798 5798 5798 5798 5797 5797 5796 5795 5794 5793 5792 5790 5788 5785 5783 5780 5777 5774 5771 5767 5763 5759 5755 5751 5746 5741 5736 5731 5725 5720 5714 5708 5702 5696 5689 5682
5785 5786 5786 5787 5788 5788 5788 5789 5789 5789 5788 5788 5787 5786 5785 5784 5782 5780 5778 5776 5774 5771 5768 5765 5761 5758 5754 5750 5746 5741 5737 5732 5727 5722 5716 5711 5705 5699 5693 5687 5681 5674 5666
5777 5777 5778 5778 5778 5779 5779 5779 5779 5778 5778 5777 5776 5775 5774 5772 5770 5768 5766 5764 5761 5758 5755 5751 5748 5744 5740 5736 5731 5727 5722 5717 5712 5707 5701 5696 5690 5684 5678 5672 5665 5658 5650
5767 5768 5768 5769 5769 5769 5769 5769 5769 5768 5767 5766 5765 5764 5762 5760 5758 5756 5753 5750 5747 5744 5741 5737 5733 5729 5725 5721 5716 5712 5707 5702 5696 5691 5686 5680 5674 5668 5662 5656 5649 5642 5634
5758 5759 5759 5759 5759 5759 5759 5759 5758 5757 5756 5755 5753 5752 5750 5748 5745 5743 5740 5737 5734 5730 5727 5723 5719 5714 5710 5705 5701 5696 5691 5686 5681 5675 5669 5664 5658 5652 5646 5639 5632 5625 5618